Regional Weather Roundup
Issued by NWS

Home | Current Version | Previous Version | Text Only | Print | Product List | Glossary On
Versions: 1 2 3 4 5 6 7 8 9 10 11 12 13 14 15 16 17 18 19 20 21 22 23 24 25 26 27 28 29 30 31 32 33 34 35 36 37 38 39 40 41 42 43 44 45 46 47 48 49 50
000
ASUS42 KTBW 280419
RWRFL
FLORIDA REGIONAL WEATHER ROUNDUP
NATIONAL WEATHER SERVICE TAMPA BAY RUSKIN FL
1200 AM EDT MON MAY 28 2018

NOTE: "FAIR" INDICATES FEW OR NO CLOUDS BELOW 12,000 FEET WITH NO
SIGNIFICANT WEATHER AND/OR OBSTRUCTIONS TO VISIBILITY.

FLZ001>010-012>015-112-114-115-280500-
PANHANDLE FLORIDA

CITY           SKY/WX    TMP DP  RH WIND       PRES   REMARKS
PENSACOLA      LGT RAIN  73  69  87 N14G21    29.76S
PENSACOLA NAS  LGT RAIN  74  68  81 NE15      29.74F
CRESTVIEW      CLOUDY    71  69  93 NE9       29.78S
DUKE FIELD     CLOUDY    71  69  95 N13       29.75F
VALPARAISO     MOCLDY    72  70  92 N14       29.73F
MARY ESTHER    MOCLDY    72  69  90 NE14G22   29.72
TRI COUNTY     CLOUDY    73  71  93 NE8       29.77S
PANAMA CITY    CLOUDY    73  71  93 NE10      29.73R
TYNDALL AFB    CLOUDY    73  72  96 NE10      29.72S
APALACHICOLA   MOCLDY    78  76  93 E10G22    29.71R

STATION/POSITION SKY/WX   TEMP    WIND        PRES    WAVE   SWELL
                          AIR SEA DIR/SP/G            HT/PER HT/PER
                          (F)     (DEG/KT/KT) (MB)    (FT/S) (FT/S)
30.1N   87.6W              78      30/ 21/ 25 1006.9R   5/ 7   2/10
29.2N   88.2W                 80   20/ 19/ 27 1006.8R   8/ 8
28.8N   86.0W              74 77   60/ 39/ 51  995.1F  14/ 8   2/14
PANAMA CITY BEAC           74 80   60/ 10/ 17 1006.8R
TOWER C                    77     120/ 26/ 29 1005.4R

$$
FLZ011-016>038-118-127-128-134-139-239-280500-
NORTH FLORIDA

CITY           SKY/WX    TMP DP  RH WIND       PRES   REMARKS
MARIANNA       CLOUDY    74  72  93 E12       29.76F
TALLAHASSEE    LGT RAIN  75  73  93 E8        29.76R
PERRY          MOCLDY    75  74  95 E7        29.78S FOG
LIVE OAK       CLOUDY    75  75 100 CALM      29.81R
CROSS CITY     MOCLDY    75 N/A N/A E6        29.77F
LAKE CITY      FAIR      72  72 100 E5        29.80F
GAINESVILLE    FAIR      76  72  87 SE8       29.82F
WILLISTON      CLEAR     77  77 100 CALM      29.79F
PALATKA        FAIR      75  75 100 SE8       29.82S
MAYPORT NAS    CLOUDY    78  75  90 S12       29.82S
JACKSONVILLE   MOCLDY    76  74  93 SE7       29.81S
JAX NAS        MOCLDY    78  75  90 SE12      29.82S
JAX CECIL      MOCLDY    75  75 100 SE5       29.81S
FERNANDINA BEA MOCLDY    78  74  87 S12G18    29.81S
ST AUGUSTINE   FAIR      76  74  93 S12       29.83S
PALM COAST     MOCLDY    76  73  90 S9        29.84R

STATION/POSITION SKY/WX   TEMP    WIND        PRES    WAVE   SWELL
                          AIR SEA DIR/SP/G            HT/PER HT/PER
                          (F)     (DEG/KT/KT) (MB)    (FT/S) (FT/S)
SHELL POINT      NOT AVBL
KEATON BEACH               75      90/  9/ 11 1007.8F
CEDAR KEY                  78     130/ 17/ 19 1008.1F
FERNANDINA                 78 78  150/  8/ 12 1010.5F
30.7N   81.3W                 77                N/A     6/ 9   2/11
MAYPORT                    77 78  160/  8/ 12 1009.9F
31.4N   80.9W              76 77  120/ 19/ 27 1009.6F   7/ 9   3/ 9
ST AUGUSTINE               77 77  160/ 19/ 21 1010.0R

$$
FLZ040-043>046-052-053-057-058-063-144-280500-
INTERIOR CENTRAL FLORIDA

CITY           SKY/WX    TMP DP  RH WIND       PRES   REMARKS
OCALA          MOCLDY    77  74  90 VRB3      29.80S
LEESBURG       FAIR      78  76  93 SE9       29.82S
SANFORD        MOCLDY    78  74  87 SE13      29.83S
ORLANDO EXEC   MOCLDY    78  75  90 SE10      29.83S
ORLANDO INTL   MOCLDY    77  75  93 SE12      29.84R
KISSIMMEE      CLOUDY    78  75  90 SE14      29.84S
WINTER HAVEN   FAIR      77  74  90 S12       29.83S
BARTOW         FAIR      75 N/A N/A SE14      29.83S
SEBRING        FAIR      78  74  86 S10G16    29.84R
OKEECHOBEE     FAIR      77  73  88 S9G17     29.85R

$$
FLZ041-047-054-059-064-141-147-280500-
EAST CENTRAL FLORIDA

CITY           SKY/WX    TMP DP  RH WIND       PRES   REMARKS
DAYTONA BEACH  FAIR      77  75  93 VRB6      29.84R
DELAND         CLOUDY    77  73  88 SE10      29.83S
JFK SPACE CTR  FAIR      77  74  91 S13G21    29.84F
CAPE CANAVERAL MOCLDY    77  73  88 SE25G31   29.84R FOG
PATRICK AFB    FAIR      76  76 100 S18       29.85R
MELBOURNE      FAIR      78  73  84 SE12      29.85S
VERO BEACH     FAIR      76  74  93 SE14      29.86F
FT PIERCE      FAIR      77  75  93 SE8       29.86F
STUART         MOCLDY    79  75  89 S8        29.88S

STATION/POSITION SKY/WX   TEMP    WIND        PRES    WAVE   SWELL
                          AIR SEA DIR/SP/G            HT/PER HT/PER
                          (F)     (DEG/KT/KT) (MB)    (FT/S) (FT/S)
28.5N   80.2W              78 77  160/ 25/ 31 1011.3R   7/ 8   2/12
28.9N   78.5W              78 78  140/ 23/ 31 1013.5R   9/ 8   2/12
TRIDENT PIER               76 80  150/ 14/ 20 1012.3R
28.4N   80.5W                 78                N/A     5/ 7
27.5N   80.2W                 73                N/A     5/ 7

$$
FLZ050-056-061-142-242-148-248-149-249-151-251-155-255-
160-260-280500-
WEST CENTRAL FLORIDA

CITY           SKY/WX    TMP DP  RH WIND       PRES   REMARKS
CRYSTAL RIVER  FAIR      75  73  94 SE6       29.78F
INVERNESS      FAIR      75  75 100 CALM      29.80F
BROOKSVILLE    FAIR      75  72  90 SE7       29.79F
CLEARWATER AIR CLOUDY    77  72  83 SE7       29.76F
ST PETE CLEARW CLOUDY    78  76  93 SE15      29.77S
TAMPA INTL     FAIR      79  73  82 SE9G20    29.78F
TAMPA EXEC     FAIR      77  73  88 S7        29.80F
MACDILL AFB    FAIR      78  74  86 S17G24    29.77F
PETER O KNIGHT MOCLDY    77  75  94 S15       29.79S
ST PETERSBURG  CLOUDY    79  75  87 S21       29.75F
SARASOTA       MOCLDY    79  74  84 S15       29.77S
VENICE         FAIR      81  77  89 S15G23    29.80S

STATION/POSITION SKY/WX   TEMP    WIND        PRES    WAVE   SWELL
                          AIR SEA DIR/SP/G            HT/PER HT/PER
                          (F)     (DEG/KT/KT) (MB)    (FT/S) (FT/S)
27.3N   84.2W                 78                N/A     7/ 7
CLEARWATER BEACH           80 81  140/ 13/ 19 1007.8F
MIDDLE TAMPA BAY           78     160/ 13/ 18 1008.2S
VENICE                     80 80  150/ 21/ 24 1008.8F

$$
FLZ066-069-070-075>078-162-262-165-265-280500-
SOUTHWEST FLORIDA AND KEYS

CITY           SKY/WX    TMP DP  RH WIND       PRES   REMARKS
PUNTA GORDA    CLOUDY    78  73  84 SE10      29.83S
FT MYERS       MOCLDY    79  75  87 SE9       29.81S
SOUTHWEST INTL FAIR      77  76  96 S12       29.82S
NAPLES         FAIR      79  77  94 SE14      29.82S
MARCO ISLAND   CLOUDY    79  75  89 SE12      29.84F
IMMOKALEE      CLOUDY    77  75  94 SE10      29.85S
MARATHON       LGT RAIN  79  75  87 SE15G26   29.87F
KEY WEST NAS   MOCLDY    78  75  90 S18       29.86S
KEY WEST INTL  LGT RAIN  79  77  94 S13       29.86S

STATION/POSITION SKY/WX   TEMP    WIND        PRES    WAVE   SWELL
                          AIR SEA DIR/SP/G            HT/PER HT/PER
                          (F)     (DEG/KT/KT) (MB)    (FT/S) (FT/S)
NAPLES                     79 80              1009.9S
26.0N   85.6W              79 82  230/ 14/ 17 1006.8R   4/ 7   3/ 7
DRY TORTUGAS               80     170/ 13/ 14 1010.3R
SAND KEY                   79                 1011.2R
SOMBRERO KEY               79     130/ 21/ 25 1010.7S
LONG KEY                   79 80  150/ 21/ 26 1011.0R
MOLASSES REEF              78 80  160/ 23/ 25 1012.0S

$$
FLZ067-068-071>074-168-172>174-280500-
SOUTHEAST FLORIDA

CITY           SKY/WX    TMP DP  RH WIND       PRES   REMARKS
W PALM BEACH   MOCLDY    77  76  96 S16       29.87F
FT LAUDER-EXEC MOCLDY    79  76  90 S12       29.88R
FT LAUDERDALE  MOCLDY    79  76  90 S14       29.87S
POMPANO BEACH  FAIR      80  73  79 S15G24    29.88S
PEMBROKE PINES MOCLDY    80  75  84 SE10      29.89R
OPA LOCKA      CLOUDY    79  76  90 S20G25    29.88R
MIAMI          MOCLDY    78  77  96 S15       29.88R
WEST KENDALL   FAIR      79  72  79 S10G18    29.87S
HOMESTEAD      FAIR      78  72  81 SE14G21   29.87S

STATION/POSITION SKY/WX   TEMP    WIND        PRES    WAVE   SWELL
                          AIR SEA DIR/SP/G            HT/PER HT/PER
                          (F)     (DEG/KT/KT) (MB)    (FT/S) (FT/S)
PORT EVERGLADES            80     150/ 14/ 19 1011.8R
VIRGINIA KEY               80 80  150/ 13/ 21 1011.4R
LAKE WORTH                 79 78  190/ 22/ 25 1012.3F
FOWEY ROCKS                79 78  150/ 25/ 28 1012.5R
SETTLEMENT POINT           80     150/ 16/ 18 1012.3F

$$




USA.gov is the U.S. government's official web portal to all federal, state and local government web resources and services.